937  
ASUS43 KEAX 231810  
RWREAX  
 
WEATHER ROUNDUP FOR EASTERN KANSAS AND NORTHWEST MISSOURI  
NATIONAL WEATHER SERVICE KANSAS CITY/PLEASANT HILL MO  
100 PM CDT SAT OCT 23 2021  
 
KSZ040-057-103>105-MOZ028-029-037-043-231900-   
..KANSAS CITY METROPOLITAN AREA
 
 
 
CITY SKY/WX TMP DP RH WIND PRES REMARKS
 
K.C. INTL CLOUDY 56 46 69 SE9 29.90F  
6HR MIN TEMP: 48; 6HR MAX TEMP: 56;  
 
K.C. DOWNTOWN CLOUDY 56 46 69 E10 29.90F  
6HR MIN TEMP: 49; 6HR MAX TEMP: 56;  
 
LEES SUMMIT CLOUDY 54 49 83 E8 29.91F  
6HR MIN TEMP: 48; 6HR MAX TEMP: 54;  
 
OLATHE - IXD CLOUDY 58 51 78 E9 29.89F  
6HR MIN TEMP: 49; 6HR MAX TEMP: 59;  
 
OLATHE - OJC CLOUDY 57 50 77 E8 29.88F  
6HR MIN TEMP: 49; 6HR MAX TEMP: 57;  
 
LAWRENCE CLOUDY 57 50 77 E10 29.88F  
 

 
 
MOZ001>008-011>017-020>025-030>033-038>040-044>046-053-054-231900-   
..NORTHERN AND CENTRAL MISSOURI
 
 
 
CITY SKY/WX TMP DP RH WIND PRES REMARKS
 
ST. JOSEPH SUNNY 61 44 53 E14G20 29.90F  
6HR MIN TEMP: 44; 6HR MAX TEMP: 62;  
 
MOSBY CLOUDY 55 45 67 E7 29.92S  
HARRISONVILLE CLOUDY 57 54 88 E6 29.93F  
WHITEMAN AFB CLOUDY 55 53 91 E6 29.88F  
6HR MIN TEMP: 48; 6HR MAX TEMP: 55; 6HR PCP: 0.14;  
 
CLINTON CLOUDY 64 61 88 VRB5 29.90F  
SEDALIA LGT RAIN 55 53 93 E5 29.93F  
6HR MIN TEMP: 49; 6HR MAX TEMP: 55; 6HR PCP: 0.07;  
 
MARSHALL CLOUDY 55 48 76 E7 29.94F  
CHILLICOTHE N/A 62 44 51 MISG 29.94F  
6HR MIN TEMP: 45; 6HR MAX TEMP: 62;  
 
MOBERLY MOSUNNY 63 43 48 E10 29.95F  
KIRKSVILLE CLOUDY 55 40 56 NE15G23 29.97F  
6HR MIN TEMP: 44; 6HR MAX TEMP: 55;  
 

 
 
MOZ041-047>049-056>058-063>065-088>090-097-231900-   
..EASTERN AND SOUTHERN MISSOURI
 
 
 
CITY SKY/WX TMP DP RH WIND PRES REMARKS
 
ST. LOUIS INTL CLOUDY 56 48 74 E3 29.99F  
6HR MIN TEMP: 47; 6HR MAX TEMP: 57;  
 
SPIRIT OF STL CLOUDY 56 50 80 E5 29.97F  
COLUMBIA CLOUDY 55 49 80 E6 29.95S  
JEFFERSON CITY CLOUDY 54 50 86 E6 29.94F  
MEXICO CLOUDY 54 46 76 E8 29.96F  
HANNIBAL PTSUNNY 63 37 39 NE8 29.97F  
ROLLA CLOUDY 57 55 93 S12 29.95F  
LEBANON CLOUDY 57 55 94 E5 29.92S  
SPRINGFIELD LGT RAIN 58 58 100 S14 29.88F  
BRANSON PTSUNNY 57 55 94 N15 30.03R  
JOPLIN PTSUNNY 62 60 93 SE9 29.87F  
WEST PLAINS LGT RAIN 58 55 90 CALM 30.02F  
SIKESTON PTSUNNY 59 59 100 CALM 30.01F  
 

 
 
IAZ060-094-KSZ022-034>040-054-083-096-NEZ052-066-093-231900-    
..KANSAS...SOUTHEAST NEBRASKA AND IOWA
 
 
 
CITY SKY/WX TMP DP RH WIND PRES REMARKS
 
TOPEKA CLOUDY 60 50 69 E14 29.86F  
6HR MIN TEMP: 50; 6HR MAX TEMP: 60;  
 
MANHATTAN CLOUDY 60 50 69 E10 29.83F  
EMPORIA CLOUDY 66 62 87 E9 29.81F  
OTTAWA CLOUDY 64 61 88 E10 29.84F  
CHANUTE MOSUNNY 70 63 78 SE10 29.84F  
SALINA CLOUDY 66 56 70 E12 29.76F  
WICHITA MOSUNNY 76 64 66 SE14G22 29.75F  
OMAHA PTSUNNY 57 35 43 E16G25 29.94F  
LINCOLN CLOUDY 57 37 47 E14 29.90F  
FALLS CITY SUNNY 59 42 53 E15 29.89F  
LAMONI CLOUDY 54 37 52 E9 29.96F  
DES MOINES MOSUNNY 53 33 46 E12 30.01F  
 

 
 
 
 
CLICK HERE TO GO TO PREVIOUS BULLETINS.

The Nexlab MO Page
The Nexlab KS Page Main Text Page